Welcome to mirrors.dotsrc.org

All our mirrors of open source software are available via http, https and ftp. More information about our mirrors including statistics and contact information is available on our mirror info pages.

For information about dotsrc.org and our other services please go to our website.

Index of /mirrors/trisquel/pool/main/w/

File Name  ↓ File Size  ↓ Date  ↓ 
Parent directory/--
webserver-package/-2010-02-12 15:17:32
wallpaper/-2010-02-12 15:36:24
wims-extra/-2010-02-12 15:36:44
wayv/-2010-02-12 15:52:55
wdg-html-validator/-2011-07-14 15:54:12
webmagick/-2011-07-14 15:54:13
wims-modules-es/-2011-07-14 15:54:13
wax.js/-2014-02-06 19:45:47
wine-gecko-2.21/-2014-02-06 19:50:34
wsil4j/-2014-02-06 19:50:35
withsqlite/-2014-02-06 19:55:52
waagent/-2014-02-06 20:01:37
web2ldap/-2014-02-06 20:01:42
window-mocker/-2014-03-01 20:38:41
webaccounts-browser-extension/-2015-09-23 05:00:33
webapps-greasemonkey/-2015-09-23 05:07:22
wsdl2c/-2016-06-24 20:17:27
wsgicors/-2016-06-24 20:37:34
webapps-applications/-2016-06-24 20:58:28
webdeploy/-2016-06-24 21:00:19
webservice-office-zoho/-2016-06-24 21:00:22
wfrog/-2016-06-24 21:01:09
whiteboard/-2016-06-24 21:01:10
whyteboard/-2016-06-24 21:01:12
winswitch/-2016-06-24 21:01:45
woof/-2016-06-24 21:01:55
wpp/-2016-06-24 21:02:00
webkitgtk-sharp3/-2016-06-24 21:47:07
webdis/-2016-06-24 22:07:18
wmf/-2016-06-24 22:07:56
wrk/-2016-06-24 22:07:58
wxhexeditor/-2016-06-24 22:08:00
wcsaxes/-2016-07-15 14:55:14
webbrowser-app/-2017-01-26 06:02:08
webissues-server/-2018-04-30 14:52:46
webcheck/-2018-04-30 14:52:46
werken.xpath/-2018-04-30 14:52:47
whatsnewfm/-2018-04-30 14:52:48
wireless-crda/-2018-04-30 14:52:49
wiliki/-2018-04-30 14:52:49
wmaker-data/-2018-04-30 14:52:50
wmbatppc/-2018-04-30 14:52:50
wm-icons/-2018-04-30 14:52:50
wmii-doc/-2018-04-30 14:52:51
wmclockmon/-2018-04-30 14:52:51
wmtop/-2018-04-30 14:52:52
wmtv/-2018-04-30 14:52:52
wwwstat/-2018-04-30 14:52:54
wspanish/-2018-04-30 14:52:54
weirdx/-2019-04-14 21:42:57
wc-mode/-2019-04-14 22:23:19
weechat-el/-2019-04-14 22:23:19
with-editor/-2019-04-14 22:23:19
ws-butler/-2019-04-14 22:23:20
with-simulated-input-el/-2019-04-14 22:23:20
writegood-mode/-2019-04-14 22:23:20
webcomponentsjs-custom-element-v0.js/-2019-04-15 00:00:53
wagon/-2019-04-15 00:36:07
wagon2/-2019-04-15 00:36:08
webjars-locator-core/-2019-04-15 00:36:15
webjars-locator/-2019-04-15 00:36:15
weupnp/-2019-04-15 00:36:31
wildfly-common/-2019-04-15 00:36:36
wildfly-client-config/-2019-04-15 00:36:36
waitress/-2019-04-15 01:28:45
wcwidth/-2019-04-15 01:28:46
webassets/-2019-04-15 01:28:46
wchartype/-2019-04-15 01:28:46
whatthepatch/-2019-04-15 01:28:48
whichcraft/-2019-04-15 01:28:48
wheel/-2019-04-15 01:28:48
willow/-2019-04-15 01:28:50
wtf-peewee/-2019-04-15 01:28:52
wait-for-it/-2019-04-15 02:18:11
wadc/-2019-04-15 02:18:11
wafw00f/-2019-04-15 02:18:11
wand/-2019-04-15 02:18:15
watcher/-2019-04-15 02:19:02
wayland-protocols/-2019-04-15 02:19:03
wcc/-2019-04-15 02:19:07
webcamd/-2019-04-15 02:19:10
webapps-metainfo/-2019-04-15 02:19:10
weathermap4rrd/-2019-04-15 02:19:10
weboob/-2019-04-15 02:19:17
websploit/-2019-04-15 02:19:19
weresync/-2019-04-15 02:19:25
wfuzz/-2019-04-15 02:21:24
whatmaps/-2019-04-15 02:21:25
whalebuilder/-2019-04-15 02:21:25
what-utils/-2019-04-15 02:21:25
whatweb/-2019-04-15 02:21:26
whereami/-2019-04-15 02:21:26
wifite/-2019-04-15 02:22:25
wims-help/-2019-04-15 02:22:34
win-iconv/-2019-04-15 02:22:36
wims-moodle/-2019-04-15 02:22:36
wiredtiger/-2019-04-15 02:22:46
wlc/-2019-04-15 02:23:03
wondershaper/-2019-04-15 02:23:18
wordpress-shibboleth/-2019-04-15 02:23:25
writeboost/-2019-04-15 02:23:33
wwwconfig-common/-2019-04-15 02:23:38
wbxml2/-2019-04-15 04:32:04
webkit2-sharp/-2019-04-15 04:32:05
webkitgtk/-2019-04-15 04:32:12
webrtc-audio-processing/-2019-04-15 04:32:13
websocketpp/-2019-04-15 04:32:13
wolfssl/-2019-04-15 04:32:28
wslay/-2019-04-15 04:32:30
wxpython3.0/-2019-04-15 04:49:56
woo/-2019-04-15 04:52:33
wxpython4.0/-2019-04-15 04:52:35
w1retap/-2019-04-15 05:12:13
waffle/-2019-04-15 05:12:15
watchcatd/-2019-04-15 05:12:18
wav2cdr/-2019-04-15 05:12:19
wavtool-pl/-2019-04-15 05:12:19
wavbreaker/-2019-04-15 05:12:19
wbox/-2019-04-15 05:12:20
wcstools/-2019-04-15 05:12:22
webcamoid/-2019-04-15 05:12:26
webhook/-2019-04-15 05:12:28
websockify/-2019-04-15 05:12:31
weightwatcher/-2019-04-15 05:12:32
weex/-2019-04-15 05:12:32
weplab/-2019-04-15 05:12:33
wesnoth-1.12/-2019-04-15 05:12:54
wget2/-2019-04-15 05:12:55
whitedb/-2019-04-15 05:12:56
whoopsie-preferences/-2019-04-15 05:12:57
why3/-2019-04-15 05:13:03
whysynth/-2019-04-15 05:13:04
wily/-2019-04-15 05:13:06
wiipdf/-2019-04-15 05:13:06
wimlib/-2019-04-15 05:13:13
wine1.6/-2019-04-15 05:13:15
wine-development/-2019-04-15 05:13:16
wings3d/-2019-04-15 05:13:20
winregfs/-2019-04-15 05:13:21
winrmcp/-2019-04-15 05:13:22
wipe/-2019-04-15 05:13:23
wit/-2019-04-15 05:13:27
wmacpi/-2019-04-15 05:13:28
wmail/-2019-04-15 05:13:28
wmanager/-2019-04-15 05:13:29
wmbiff/-2019-04-15 05:13:29
wmcalclock/-2019-04-15 05:13:30
wmcalc/-2019-04-15 05:13:30
wmcliphist/-2019-04-15 05:13:31
wmcdplay/-2019-04-15 05:13:31
wmcoincoin/-2019-04-15 05:13:32
wmcore/-2019-04-15 05:13:32
wmcpu/-2019-04-15 05:13:32
wmdiskmon/-2019-04-15 05:13:33
wmfire/-2019-04-15 05:13:33
wmcube/-2019-04-15 05:13:33
wmdate/-2019-04-15 05:13:33
wmdrawer/-2019-04-15 05:13:33
wmfsm/-2019-04-15 05:13:34
wmget/-2019-04-15 05:13:34
wmforecast/-2019-04-15 05:13:34
wmgtemp/-2019-04-15 05:13:35
wmix/-2019-04-15 05:13:38
wmload/-2019-04-15 05:13:39
wmmatrix/-2019-04-15 05:13:39
wmmemload/-2019-04-15 05:13:40
wmpinboard/-2019-04-15 05:13:41
wmrack/-2019-04-15 05:13:42
wmressel/-2019-04-15 05:13:42
wmppp.app/-2019-04-15 05:13:42
wmstickynotes/-2019-04-15 05:13:43
wmtemp/-2019-04-15 05:13:43
wmsun/-2019-04-15 05:13:43
wmsysmon/-2019-04-15 05:13:43
wmsystemtray/-2019-04-15 05:13:43
wmxres/-2019-04-15 05:13:43
wmwave/-2019-04-15 05:13:43
woff-tools/-2019-04-15 05:13:44
woff2/-2019-04-15 05:13:44
wordplay/-2019-04-15 05:13:46
wordwarvi/-2019-04-15 05:13:47
wpan-tools/-2019-04-15 05:13:48
wsclean/-2019-04-15 05:13:50
wrapsrv/-2019-04-15 05:13:50
wsmancli/-2019-04-15 05:13:51
wsynth-dssi/-2019-04-15 05:13:51
wsjtx/-2019-04-15 05:13:51
wxwidgets3.0/-2019-04-15 05:13:52
wwl/-2019-04-15 05:13:52
wuzz/-2019-04-15 05:13:52
wxastrocapture/-2019-04-15 05:13:53
wzip/-2019-04-15 05:13:53
wala/-2019-04-24 05:06:44
websocket-api/-2019-04-24 05:06:47
wpa/-2019-10-20 05:00:17
w3c-sgml-lib/-2019-12-14 04:55:14
wslu/-2019-12-20 06:43:46
w3cam/-2020-05-30 22:46:29
wader/-2020-05-30 22:46:29
w3m-el-snapshot/-2020-05-30 22:46:29
w3af/-2020-05-30 22:46:29
w-scan/-2020-05-30 22:46:29
w3m/-2020-05-30 22:46:29
waili/-2020-05-30 22:46:29
wakeup/-2020-05-30 22:46:29
wakeonlan/-2020-05-30 22:46:29
w3c-markup-validator/-2020-05-30 22:46:29
wajig/-2020-05-30 22:46:29
wah-plugins/-2020-05-30 22:46:29
w3c-dtd-xhtml/-2020-05-30 22:46:29
wacomtablet/-2020-05-30 22:46:29
w3c-linkchecker/-2020-05-30 22:46:29
w3-dtd-mathml/-2020-05-30 22:46:29
w2do/-2020-05-30 22:46:29
w3m-el/-2020-05-30 22:46:29
wavesurfer/-2020-05-30 22:46:30
wavemon/-2020-05-30 22:46:30
wapiti/-2020-05-30 22:46:30
wapua/-2020-05-30 22:46:30
watchdog/-2020-05-30 22:46:30
warmux/-2020-05-30 22:46:30
warzone2100/-2020-05-30 22:46:30
wcalc/-2020-05-30 22:46:30
wammu/-2020-05-30 22:46:30
wayland/-2020-05-30 22:46:30
wally/-2020-05-30 22:46:30
wbar/-2020-05-30 22:46:30
wallch/-2020-05-30 22:46:30
walinuxagent/-2020-05-30 22:46:30
wavpack/-2020-05-30 22:46:30
watershed/-2020-05-30 22:46:30
wcd/-2020-05-30 22:46:30
wdiff/-2020-05-30 22:46:31
webhelpers/-2020-05-30 22:46:31
webgui/-2020-05-30 22:46:31
webcolors/-2020-05-30 22:46:31
wcslib/-2020-05-30 22:46:31
webcit/-2020-05-30 22:46:31
webdruid/-2020-05-30 22:46:31
webgen0.5/-2020-05-30 22:46:31
webissues/-2020-05-30 22:46:31
wdm/-2020-05-30 22:46:31
webfs/-2020-05-30 22:46:31
webalizer/-2020-05-30 22:46:31
web2py/-2020-05-30 22:46:31
webauth/-2020-05-30 22:46:31
weather-util/-2020-05-30 22:46:31
weechat-scripts/-2020-05-30 22:46:32
webkit/-2020-05-30 22:46:32
welcome2l/-2020-05-30 22:46:32
webkit-image/-2020-05-30 22:46:32
websocket-client/-2020-05-30 22:46:32
weborf/-2020-05-30 22:46:32
webkit-sharp/-2020-05-30 22:46:32
weka/-2020-05-30 22:46:32
weechat/-2020-05-30 22:46:32
webkitkde/-2020-05-30 22:46:32
websvn/-2020-05-30 22:46:32
webkit2pdf/-2020-05-30 22:46:32
webpy/-2020-05-30 22:46:32
webtest/-2020-05-30 22:46:32
wfmath/-2020-05-30 22:46:33
wget/-2020-05-30 22:46:33
wesnoth-1.10/-2020-05-30 22:46:33
whohas/-2020-05-30 22:46:33
whowatch/-2020-05-30 22:46:33
whichwayisup/-2020-05-30 22:46:33
wicd-kde/-2020-05-30 22:46:33
west-chamber/-2020-05-30 22:46:33
wfrench/-2020-05-30 22:46:33
weston/-2020-05-30 22:46:33
why/-2020-05-30 22:46:33
whitedune/-2020-05-30 22:46:33
whois/-2020-05-30 22:46:33
when/-2020-05-30 22:46:33
whiff/-2020-05-30 22:46:33
whizzytex/-2020-05-30 22:46:33
whichman/-2020-05-30 22:46:33
wicd/-2020-05-30 22:46:33
wikipediafs/-2020-05-30 22:46:34
wmbubble/-2020-05-30 22:46:34
wiggle/-2020-05-30 22:46:34
wifi-radar/-2020-05-30 22:46:34
wireless-regdb/-2020-05-30 22:46:34
wmshutdown/-2020-05-30 22:46:34
wmnet/-2020-05-30 22:46:34
winff/-2020-05-30 22:46:34
wmctrl/-2020-05-30 22:46:34
wmbutton/-2020-05-30 22:46:34
wmifinfo/-2020-05-30 22:46:34
wnn6-sdk/-2020-05-30 22:46:34
wmlongrun/-2020-05-30 22:46:34
wireless-tools/-2020-05-30 22:46:34
wmnut/-2020-05-30 22:46:34
wmaker/-2020-05-30 22:46:34
wing/-2020-05-30 22:46:34
wm2/-2020-05-30 22:46:34
wmaloader/-2020-05-30 22:46:34
wine1.4/-2020-05-30 22:46:34
wmtime/-2020-05-30 22:46:34
wkhtmltopdf/-2020-05-30 22:46:34
wiki2beamer/-2020-05-30 22:46:34
wml/-2020-05-30 22:46:34
wokkel/-2020-05-30 22:46:34
wmitime/-2020-05-30 22:46:34
wmauda/-2020-05-30 22:46:34
wl-beta/-2020-05-30 22:46:34
wizznic/-2020-05-30 22:46:34
wise/-2020-05-30 22:46:34
wmifs/-2020-05-30 22:46:34
winefish/-2020-05-30 22:46:34
wide-dhcpv6/-2020-05-30 22:46:34
widemargin/-2020-05-30 22:46:34
wikidiff2/-2020-05-30 22:46:34
wmii/-2020-05-30 22:46:34
wmweather+/-2020-05-30 22:46:34
wmnd/-2020-05-30 22:46:34
widelands/-2020-05-30 22:46:34
windows-el/-2020-05-30 22:46:34
wildmidi/-2020-05-30 22:46:34
wmpuzzle/-2020-05-30 22:46:34
wmmon/-2020-05-30 22:46:34
wmweather/-2020-05-30 22:46:34
wmmoonclock/-2020-05-30 22:46:34
wmxmms2/-2020-05-30 22:46:34
wmclock/-2020-05-30 22:46:34
wmbattery/-2020-05-30 22:46:34
wordgrinder/-2020-05-30 22:46:34
winpdb/-2020-05-30 22:46:34
wmforkplop/-2020-05-30 22:46:34
wims/-2020-05-30 22:46:34
winwrangler/-2020-05-30 22:46:34
wireshark/-2020-05-30 22:46:34
wmcpuload/-2020-05-30 22:46:34
wmhdplop/-2020-05-30 22:46:34
wl/-2020-05-30 22:46:34
wikipedia2text/-2020-05-30 22:46:34
windowlab/-2020-05-30 22:46:34
witty/-2020-05-30 22:46:34
wmfrog/-2020-05-30 22:46:34
wininfo/-2020-05-30 22:46:34
wmwork/-2020-05-30 22:46:34
wmmixer/-2020-05-30 22:46:34
witalian/-2020-05-30 22:46:34
writetype/-2020-05-30 22:46:35
wsjt/-2020-05-30 22:46:35
wsl/-2020-05-30 22:46:35
wvstreams/-2020-05-30 22:46:35
wrapperfactory.app/-2020-05-30 22:46:35
wordpress-openid/-2020-05-30 22:46:35
wuzzah/-2020-05-30 22:46:35
wotsap/-2020-05-30 22:46:35
workrave/-2020-05-30 22:46:35
wxformbuilder/-2020-05-30 22:46:35
wreport/-2020-05-30 22:46:35
wsdl4j/-2020-05-30 22:46:35
wput/-2020-05-30 22:46:35
writer2latex/-2020-05-30 22:46:35
wyrd/-2020-05-30 22:46:35
wzdftpd/-2020-05-30 22:46:35
wss4j/-2020-05-30 22:46:35
wxmaxima/-2020-05-30 22:46:35
wp2x/-2020-05-30 22:46:35
wulfware/-2020-05-30 22:46:35
wordnet/-2020-05-30 22:46:35
writerperfect/-2020-05-30 22:46:35
wordpress/-2020-05-30 22:46:35
wordpress-xrds-simple/-2020-05-30 22:46:35
wtforms/-2020-05-30 22:46:35
wysihtml/-2020-05-30 22:46:35
wxbanker/-2020-05-30 22:46:35
wv/-2020-05-30 22:46:35
wxglade/-2020-05-30 22:46:35
wxgeometrie/-2020-05-30 22:46:35
worklog/-2020-05-30 22:46:35
wpeditor/-2020-05-30 22:46:35
wxwidgets2.8/-2020-05-30 22:46:35
wxsqlite3/-2020-05-30 22:46:35
worker/-2020-05-30 22:46:35
wraplinux/-2020-05-30 22:46:35
wv2/-2020-05-30 22:46:35
wvdial/-2020-05-30 22:46:35
wxsvg/-2020-06-20 05:05:54
wine/-2020-07-20 05:07:20
wireguard-linux-compat/-2020-08-04 05:02:23
webkit2gtk/-2020-08-05 05:31:27
whoopsie/-2020-08-06 05:15:10
wireguard/-2020-08-15 05:20:45